Theta_e
351 352 351 351 348 346 345 344 344 343 344 346 346 347 347 348 348 347 347 347 348 348 348 348 348 349 348 348 348 347 347 347 347 347 345 343 339 338 340 340 342 344 343 341 338 334 336 337 337 339 343 346 348 349 349 350 350 348 346 345 344 345 346 347 346 347 348 346 346 347 344 342 343 343 345 343 340 341 341 342 343 344 344 344 347
351 351 350 349 347 345 345 343 343 344 345 346 346 347 347 347 348 348 348 348 348 347 347 347 347 347 345 344 344 344 344 345 344 342 339 338 337 335 339 343 343 342 342 340 337 335 335 337 338 339 342 344 345 346 347 348 349 349 347 346 346 346 347 347 347 347 348 347 346 347 345 342 343 344 345 342 340 342 341 343 345 346 343 342 347
350 350 348 347 345 344 342 342 343 344 345 345 345 345 345 346 347 347 347 346 346 346 346 346 346 345 343 343 343 343 343 343 342 339 335 333 336 335 337 344 345 342 341 339 337 336 336 337 339 340 342 343 343 344 344 346 347 347 349 349 348 348 348 347 347 347 348 349 347 347 346 343 343 345 345 342 341 343 343 343 343 345 342 342 348
349 347 346 345 344 342 341 341 342 343 344 344 343 344 345 346 346 346 346 346 346 346 346 345 344 344 343 343 342 342 342 342 342 340 335 332 335 336 336 340 344 343 341 339 338 338 337 338 340 342 343 343 344 344 344 344 344 345 347 349 349 349 350 348 347 347 347 348 347 348 347 344 344 347 345 341 343 344 344 344 341 344 341 339 347
346 345 344 344 343 341 341 340 341 342 342 342 342 344 345 346 346 346 345 346 347 346 346 344 344 344 344 344 342 342 341 340 341 340 337 333 333 335 337 338 340 341 340 339 339 339 340 341 342 343 343 344 344 344 344 344 344 343 344 345 346 346 348 348 347 348 348 348 349 349 347 344 345 346 342 341 345 344 344 343 341 343 339 337 345
343 343 342 342 342 341 340 340 340 339 340 341 343 344 345 345 346 345 345 347 348 347 346 344 344 343 343 344 343 342 341 339 339 339 338 335 333 333 335 337 338 340 340 341 341 341 342 342 343 344 344 344 344 344 343 343 343 343 341 341 340 339 341 343 345 347 348 349 351 351 348 344 344 344 341 343 345 343 343 342 339 340 338 339 343
342 342 341 341 341 340 339 339 339 339 341 342 344 344 345 347 346 345 346 347 348 347 345 344 344 343 343 343 343 342 340 339 339 339 339 336 335 334 334 335 336 338 339 340 341 341 341 342 343 343 343 342 342 342 341 340 340 339 338 337 336 336 336 338 343 345 345 349 351 352 349 343 343 343 342 345 345 343 343 340 338 337 335 339 339
343 342 341 340 340 339 340 341 341 341 343 344 344 345 347 348 346 346 347 347 347 345 345 344 344 343 343 343 342 342 341 340 339 339 339 338 336 335 335 335 335 336 336 337 338 339 339 339 340 339 340 339 339 338 337 337 335 335 335 335 334 336 336 336 340 341 343 348 349 351 349 343 343 343 343 346 344 342 342 339 337 335 333 336 336
344 342 341 340 340 340 341 341 342 343 345 346 346 346 348 348 347 347 347 347 346 344 344 344 343 342 343 343 342 342 341 340 340 339 340 339 338 337 337 336 336 336 337 337 337 337 338 339 339 339 340 340 340 340 339 337 336 337 338 340 340 340 338 337 338 339 342 347 349 350 348 343 343 343 344 346 344 342 341 340 337 332 331 331 333
345 343 341 340 341 341 341 341 343 345 347 348 348 348 348 348 347 347 347 346 345 344 344 342 342 341 341 342 342 342 341 341 340 340 340 340 339 338 338 337 338 337 337 338 338 338 339 339 340 341 341 342 343 344 343 341 341 343 344 344 345 344 343 340 339 339 341 346 349 351 348 344 343 342 345 346 343 342 342 339 333 326 326 326 329
345 343 341 341 341 340 341 342 345 347 348 349 350 348 348 348 346 346 347 346 344 344 343 342 340 339 339 340 341 341 341 341 341 340 340 340 340 339 338 338 338 338 338 338 338 338 339 339 340 340 341 342 343 344 345 344 344 346 346 347 347 347 346 344 342 340 340 344 349 351 349 345 343 343 346 346 343 343 342 335 327 322 323 323 326
344 343 342 343 343 342 342 343 346 348 348 349 350 347 346 346 346 345 346 345 345 343 341 341 338 337 339 339 339 340 340 340 339 340 339 339 339 339 338 338 337 338 337 337 338 338 338 339 340 340 341 341 342 343 343 345 346 346 346 348 349 349 349 348 346 342 340 343 348 351 349 346 344 343 346 346 343 343 340 333 326 325 323 320 324
343 343 343 345 346 345 344 344 347 348 349 350 349 347 346 346 346 345 345 344 344 342 340 340 338 338 339 338 338 338 338 339 338 337 337 338 338 338 338 338 337 337 337 338 337 337 338 338 339 339 340 340 341 343 343 344 345 346 347 347 349 351 351 350 348 345 341 342 347 350 349 347 344 344 347 346 344 343 338 333 332 326 321 321 325
342 343 345 347 347 347 345 345 346 348 350 350 349 348 347 346 345 344 344 344 344 342 341 338 337 338 337 338 340 338 337 337 337 337 337 338 338 338 338 338 338 337 337 338 338 338 337 338 338 339 339 340 342 343 344 344 345 347 347 348 350 351 351 350 350 348 344 341 344 348 348 348 345 344 347 346 345 343 337 336 335 324 318 322 328
341 343 346 347 347 347 347 346 346 347 349 350 348 349 348 346 345 344 344 344 343 343 341 339 338 337 338 342 344 345 344 340 338 337 338 338 338 338 338 337 338 339 339 339 339 339 339 339 339 340 341 342 343 343 343 343 345 346 347 349 350 350 350 350 350 350 347 341 343 347 348 348 345 344 347 346 345 343 338 339 334 323 319 322 331
341 344 347 347 347 347 347 347 347 347 349 350 349 349 348 346 345 344 344 344 343 343 342 340 340 338 342 345 342 347 352 345 340 340 338 339 338 338 338 338 338 339 340 339 339 340 340 341 340 341 343 343 342 343 343 343 344 346 348 350 350 349 349 349 350 349 347 342 341 347 349 348 345 344 347 346 346 343 340 341 334 323 319 320 331
342 346 348 347 347 347 347 347 348 349 349 350 349 348 347 346 345 344 344 344 342 344 343 341 341 338 342 346 342 348 356 346 340 341 339 339 338 339 339 339 338 338 339 339 340 341 341 341 341 341 342 342 343 343 344 344 344 345 348 350 349 349 349 350 351 349 346 343 341 346 349 348 345 344 346 347 346 344 342 342 335 324 319 318 325
344 347 348 347 347 347 346 348 349 350 350 349 349 348 347 347 346 345 344 344 343 343 344 343 343 340 340 343 341 345 352 346 345 347 343 340 340 341 341 340 339 339 340 341 342 342 341 341 341 342 343 342 343 345 345 345 345 346 348 351 350 349 349 350 352 351 346 342 341 346 349 348 345 344 346 347 346 344 342 342 337 324 319 317 320
347 349 348 347 346 346 346 348 350 350 349 348 348 348 348 347 347 346 344 345 344 343 345 344 344 343 342 343 342 342 343 344 349 350 350 349 342 340 341 341 341 341 341 342 343 343 342 342 343 343 343 344 346 346 346 346 346 345 347 349 348 350 351 351 352 352 349 343 341 346 350 348 346 344 345 346 347 344 342 342 336 325 319 317 318
349 349 348 346 346 345 345 348 350 349 347 348 349 349 349 349 349 348 346 347 346 344 345 345 345 345 345 344 344 344 341 342 345 344 350 358 352 346 343 341 341 341 341 343 342 343 343 343 344 344 345 346 348 347 346 347 346 346 346 347 349 351 352 353 353 352 350 345 342 345 350 349 347 344 344 346 347 345 342 342 337 327 319 317 316
349 349 348 346 345 345 345 347 349 348 347 349 352 350 349 350 350 349 348 348 347 346 346 345 345 345 345 345 344 345 344 344 343 341 347 355 356 354 347 342 343 342 341 343 343 344 343 343 345 346 348 348 348 347 348 348 348 348 347 348 351 351 351 351 352 353 351 346 343 346 350 350 348 345 343 345 347 346 343 342 340 330 320 317 315
349 349 348 346 345 346 346 346 348 348 348 351 353 351 349 350 351 351 350 349 347 347 346 345 345 344 345 345 345 345 344 344 344 343 344 345 349 351 345 342 346 343 341 343 344 345 344 344 348 350 350 349 348 349 350 350 350 350 349 349 351 350 349 349 349 350 350 347 346 347 350 350 349 346 344 344 346 347 343 341 339 330 321 318 315
349 349 349 347 347 347 346 346 348 347 347 351 353 352 350 350 351 352 352 350 348 347 347 346 346 346 345 345 345 346 346 345 344 343 343 343 346 348 342 341 345 343 343 345 345 346 345 346 349 351 351 348 349 350 351 351 351 350 349 349 350 350 349 351 350 348 348 347 347 350 352 352 351 347 344 344 346 346 344 338 334 328 320 317 315
348 348 349 349 349 348 347 347 347 347 348 350 352 352 351 350 350 351 351 350 348 347 348 348 347 347 347 347 346 347 347 347 345 343 343 343 345 345 342 344 346 344 343 346 348 348 347 349 351 351 351 350 350 352 352 351 350 349 350 350 351 351 349 351 352 351 348 347 347 350 352 353 353 350 345 344 346 346 344 338 332 327 320 316 315
346 347 347 348 349 348 348 348 347 348 349 350 352 352 351 351 350 350 350 350 349 348 348 349 349 347 348 348 349 348 348 348 346 345 345 344 344 344 344 345 347 346 345 346 349 350 349 350 352 351 351 351 352 353 353 351 349 349 350 351 352 352 351 350 351 352 350 348 349 350 351 352 354 353 348 345 345 346 344 337 331 326 319 316 314
345 345 344 345 346 347 347 348 348 349 350 351 351 352 351 352 351 350 351 350 349 349 349 349 349 348 349 350 351 351 351 350 349 348 348 347 346 345 345 346 346 345 346 349 350 350 351 350 351 352 351 352 353 353 355 353 351 349 350 352 352 352 352 351 351 352 350 349 350 350 352 352 353 354 351 346 345 346 343 335 330 325 318 315 314
344 344 341 340 342 344 344 347 349 350 350 350 351 351 351 352 351 351 352 352 349 348 348 349 348 348 349 350 352 352 351 351 350 350 350 349 348 346 345 349 352 349 348 350 350 350 352 351 351 352 351 352 354 354 355 353 352 350 349 352 353 352 352 352 353 352 351 351 351 350 351 352 353 353 353 349 346 345 341 334 329 323 318 317 314
344 342 338 338 342 344 343 344 348 350 350 350 350 350 351 352 351 351 351 351 349 348 348 348 348 347 348 349 351 351 351 351 350 351 351 351 351 349 346 348 353 356 355 356 355 351 351 351 352 352 353 354 356 355 354 353 353 352 351 351 352 352 353 354 353 352 351 351 352 352 350 351 352 352 353 352 349 346 341 337 331 323 320 319 314
342 338 337 341 344 344 342 342 346 350 351 351 351 351 351 352 352 351 350 350 349 348 348 348 348 347 347 347 349 350 351 350 350 351 352 352 352 351 350 347 348 355 361 363 359 353 351 352 351 353 355 356 356 356 354 353 353 353 351 350 350 351 354 355 355 353 352 351 351 352 351 350 351 352 353 352 350 347 343 341 337 330 326 322 314
338 337 340 343 343 343 343 343 345 350 352 352 352 351 351 352 352 351 349 349 350 349 349 349 348 348 348 347 348 350 351 351 351 352 352 352 352 351 352 349 347 350 354 358 358 353 351 353 353 354 356 356 356 355 354 353 353 352 351 350 350 351 354 355 354 353 352 351 351 352 352 351 350 352 352 351 351 348 344 342 339 334 333 329 320
338 340 343 343 343 344 345 345 346 350 352 352 352 352 352 352 352 350 349 349 350 349 349 349 349 349 349 349 349 350 350 350 351 352 352 352 352 350 350 350 349 349 347 351 356 354 351 352 354 354 355 356 356 355 353 352 352 352 351 350 350 351 353 354 353 353 352 351 351 351 351 351 349 349 349 350 350 348 344 342 339 337 336 332 324
341 343 344 344 344 345 346 347 347 350 352 352 352 352 352 351 351 350 349 349 350 350 349 349 350 350 350 351 351 350 350 350 350 351 352 352 352 350 350 349 350 350 347 347 352 354 350 351 353 354 355 355 355 354 353 352 352 352 351 350 351 351 352 353 352 351 351 350 351 352 352 351 349 348 348 350 350 348 344 342 339 338 336 330 325
342 344 344 344 345 345 346 348 349 349 351 351 351 351 351 351 351 350 349 349 349 349 350 350 350 350 350 351 351 351 350 350 350 351 351 353 352 350 349 350 349 350 349 348 350 352 350 350 353 354 355 355 355 355 354 352 351 351 352 352 351 351 351 351 351 351 351 351 351 352 351 350 349 348 348 348 348 347 345 342 339 338 334 327 323
342 343 344 344 345 345 346 348 349 349 349 350 350 350 350 350 350 350 350 349 349 348 349 350 350 350 350 350 350 350 350 350 350 351 351 352 353 351 350 350 350 350 350 349 349 350 351 351 352 354 355 354 354 355 354 353 351 351 352 352 351 351 350 351 351 350 351 351 350 350 350 350 348 347 348 347 346 345 343 340 339 337 331 323 317
342 343 344 346 347 346 346 348 349 350 349 350 350 350 350 349 349 350 350 349 349 348 349 350 350 350 350 350 349 349 349 350 350 350 351 351 352 353 352 352 352 351 350 349 349 350 351 352 352 353 354 354 355 356 355 353 351 350 351 351 350 350 350 350 350 349 349 348 349 349 348 349 348 347 347 346 345 344 341 339 340 335 326 319 316
342 343 345 347 347 347 347 347 348 349 350 350 350 350 350 349 349 349 349 349 348 349 350 350 350 349 350 350 349 349 351 352 351 351 351 351 351 353 353 353 353 351 350 350 350 350 351 352 353 353 353 354 354 356 355 352 351 350 350 350 350 349 349 349 347 347 348 346 346 347 347 347 346 345 345 345 344 343 341 340 336 328 320 317 316
345 345 346 348 349 349 349 349 348 349 349 349 350 349 349 349 349 349 349 349 349 349 349 350 350 350 350 350 349 349 351 352 353 352 352 352 352 353 354 354 353 353 351 350 350 350 351 352 353 352 353 354 355 356 355 352 350 349 349 349 348 348 348 347 346 346 347 345 344 345 345 345 344 342 341 341 340 339 337 333 325 319 318 317 314
347 347 348 349 349 349 349 350 349 349 349 348 349 349 348 348 349 349 349 349 349 349 349 350 350 350 349 349 348 348 349 350 352 352 352 352 352 353 354 354 353 352 351 350 349 350 351 351 352 353 353 354 355 356 354 352 350 349 349 349 348 347 348 347 345 344 344 342 341 342 342 342 341 340 339 337 335 330 326 323 320 319 320 318 313
348 348 348 348 347 348 348 348 349 349 349 348 348 349 348 348 349 349 349 349 349 349 349 350 350 350 349 349 348 348 348 348 350 351 352 352 352 352 353 354 354 353 352 350 349 351 352 352 352 353 354 354 355 355 354 352 350 348 348 349 348 347 346 346 345 343 342 340 339 338 338 338 338 338 337 334 332 328 324 321 321 319 317 313 310
347 346 347 347 347 348 347 347 348 347 348 348 348 349 348 348 348 349 349 349 349 349 349 349 350 350 349 349 349 349 348 348 349 350 351 352 352 352 353 353 353 353 352 351 350 351 352 352 353 354 354 355 355 354 354 352 350 349 348 349 349 347 345 344 342 341 341 340 338 336 335 336 335 334 333 332 330 328 325 320 316 313 311 310 310
347 346 346 346 347 347 347 347 347 346 346 347 347 348 348 348 348 349 349 349 349 349 349 349 349 349 350 349 348 348 348 348 348 349 349 351 352 352 353 353 352 351 350 349 349 350 351 352 353 354 353 354 354 354 354 353 352 350 349 348 348 347 345 343 339 338 339 338 337 334 332 333 333 331 329 329 326 322 319 315 312 311 312 313 315
348 347 346 346 346 346 346 345 345 345 345 345 346 347 347 348 347 348 348 348 348 349 348 349 349 348 348 348 347 346 346 346 347 348 349 350 351 352 353 353 352 351 349 349 348 348 350 352 353 353 353 353 353 353 353 354 353 351 349 348 348 346 344 341 336 335 335 335 334 332 327 327 327 324 321 320 318 316 315 315 315 316 317 318 318
348 348 346 346 346 346 346 345 345 345 344 344 345 345 346 346 346 347 347 347 348 348 348 348 348 347 346 346 345 346 345 345 346 347 348 349 350 352 354 355 354 353 351 350 350 348 349 351 351 351 352 353 352 352 353 354 353 351 349 349 348 346 344 340 336 333 332 333 333 330 324 320 318 316 315 315 316 317 317 317 317 317 317 316 315
348 348 347 347 347 346 345 345 345 344 344 343 344 344 344 345 345 346 346 346 347 347 347 347 346 346 345 345 344 344 344 345 346 347 349 349 349 352 356 356 355 354 353 353 352 351 350 351 350 349 350 351 352 352 352 353 353 351 349 348 348 347 346 344 341 336 332 332 332 329 325 320 314 312 313 315 316 317 317 317 317 316 314 312 311
348 348 347 346 346 346 345 344 344 344 343 343 343 343 343 343 344 345 345 346 346 346 346 346 346 346 346 345 345 345 344 345 345 347 349 348 349 354 358 357 355 354 355 353 353 352 351 351 350 348 349 351 352 352 353 353 352 351 349 348 347 347 347 346 344 339 334 332 331 328 325 321 314 311 312 312 313 316 316 316 315 313 311 311 310
348 348 348 347 346 346 345 344 344 343 343 342 342 342 342 343 343 344 345 345 346 345 345 345 346 346 346 346 346 346 346 345 345 347 350 351 352 354 356 356 355 357 357 354 353 354 353 352 352 351 351 352 352 353 352 352 352 351 350 348 347 347 346 345 343 339 333 331 331 328 324 320 315 312 311 311 313 316 316 314 312 312 311 311 311
348 348 347 347 346 346 346 345 344 343 343 342 342 342 342 343 343 343 344 345 346 345 345 345 345 346 346 346 347 347 346 346 347 349 351 353 355 355 354 353 356 358 359 358 356 356 356 355 354 353 352 352 353 352 351 351 352 350 349 348 347 346 345 341 338 334 331 330 331 329 323 318 316 314 313 314 316 317 314 312 312 312 312 312 312
347 348 347 347 346 345 345 345 343 343 343 342 343 343 343 343 342 343 344 344 345 346 345 345 345 345 346 346 347 347 347 347 347 348 349 350 353 355 353 351 353 357 358 359 360 358 357 355 354 353 352 351 350 349 350 350 350 349 348 346 345 345 341 335 332 330 329 328 329 329 323 318 318 318 317 317 317 315 313 312 313 312 312 312 312
347 348 348 348 348 347 346 344 343 344 343 343 343 343 343 344 343 343 344 344 345 345 345 345 345 345 345 346 347 348 348 347 347 348 348 348 350 353 351 349 351 354 354 356 359 358 356 354 354 352 351 349 348 348 348 347 346 346 346 344 343 342 338 333 330 328 327 326 327 328 325 320 320 320 319 317 316 314 313 312 312 312 312 312 311
347 347 348 349 350 351 349 347 345 344 344 345 345 344 344 344 343 343 343 344 344 345 345 345 345 345 345 346 348 348 348 348 348 348 348 348 348 350 350 349 351 353 353 354 357 357 354 353 352 351 350 349 348 346 346 345 342 342 343 343 343 341 337 334 330 326 324 324 325 326 324 320 320 320 317 315 315 313 313 313 313 313 313 313 313
347 347 347 348 349 351 352 352 350 348 347 347 346 345 345 345 344 344 344 344 344 345 345 345 345 345 345 347 349 349 349 350 350 350 350 349 348 349 349 349 350 351 352 353 355 355 353 352 351 350 349 348 347 346 344 342 339 340 342 343 343 341 338 334 329 326 325 323 323 323 321 317 317 318 315 315 315 314 314 314 313 314 314 314 314
Wind_Speed
15 15 14 14 13 12 12 12 12 12 12 12 12 12 12 11 10 9 7 6 4 3 2 2 3 5 5 4 4 4 4 4 3 3 3 3 4 5 5 5 5 6 5 5 4 4 4 4 4 4 3 3 2 2 3 4 6 6 5 5 5 6 7 7 7 8 9 10 8 6 5 4 5 6 6 7 8 9 9 9 9 9 8 7 6
16 15 14 13 12 12 12 12 13 13 12 12 12 11 10 9 8 6 5 3 2 1 2 2 1 3 3 1 1 1 1 1 0 1 1 2 3 4 5 5 5 5 5 4 4 3 3 3 3 3 3 3 2 2 3 4 7 9 9 8 7 7 8 8 8 8 9 10 8 6 4 4 5 6 7 8 9 10 10 10 9 9 9 8 7
14 13 13 13 12 12 13 13 13 13 12 11 10 9 8 6 6 5 4 3 3 3 3 2 1 2 1 1 1 1 1 1 1 1 1 2 3 4 5 5 5 5 4 4 3 3 3 2 2 2 2 2 1 1 2 4 6 8 10 10 10 9 9 9 9 9 9 10 9 5 4 4 5 6 7 9 10 10 10 10 10 10 10 8 8
13 12 12 12 12 13 13 13 12 12 11 10 8 7 5 5 4 4 4 4 4 4 3 1 1 1 1 1 2 1 0 0 0 0 1 3 4 5 5 5 5 5 4 4 4 3 3 3 3 3 2 2 2 2 3 4 6 7 9 10 10 10 10 10 9 9 9 10 8 5 5 5 5 6 8 10 10 10 10 10 10 9 9 8 7
12 12 12 12 13 13 13 13 12 11 10 8 6 5 4 3 3 4 4 4 4 4 4 2 0 1 1 2 2 1 1 1 1 2 1 3 4 5 5 5 5 5 5 5 5 4 4 4 4 4 3 3 3 3 4 5 6 8 9 10 10 10 9 9 8 9 9 9 8 6 5 5 6 6 8 10 10 10 10 10 10 9 8 8 7
13 13 13 13 13 14 13 12 11 10 8 6 5 3 2 2 3 4 4 4 4 5 5 3 2 1 2 3 3 2 2 2 2 2 2 3 4 5 5 6 5 5 5 5 5 5 5 5 5 5 5 5 5 5 6 6 8 9 10 10 10 10 9 8 7 7 8 9 9 6 5 5 6 7 8 9 9 10 10 10 10 9 8 7 7
13 13 13 13 13 14 13 11 9 8 6 5 3 2 3 4 4 4 3 3 4 5 5 3 3 4 5 5 4 4 4 4 4 4 4 3 4 5 5 6 6 5 5 5 5 5 6 6 6 7 7 7 7 7 7 8 8 9 10 10 10 10 9 8 7 6 6 7 8 7 6 5 6 7 8 8 9 10 10 10 10 9 9 7 7
14 13 13 14 14 13 11 10 8 6 5 4 3 3 4 4 4 3 2 2 3 3 3 3 4 6 7 8 7 7 7 7 7 6 6 5 4 4 4 5 5 5 5 5 5 5 5 6 6 7 8 8 8 8 8 8 8 8 8 9 9 8 8 7 7 6 5 6 6 6 6 5 5 7 8 8 8 9 9 10 10 10 9 8 7
14 14 14 14 13 12 10 9 7 6 5 4 4 3 3 3 2 1 1 2 2 2 2 3 5 7 9 11 9 9 10 10 9 9 8 8 6 5 5 4 4 4 5 5 5 5 5 5 5 6 7 7 7 7 7 7 6 6 6 7 7 7 7 6 6 6 5 6 5 5 6 5 5 6 7 8 8 9 9 9 10 10 9 8 7
14 14 14 13 12 11 9 8 7 7 6 4 3 2 2 1 1 1 2 2 3 3 4 4 5 6 7 10 11 10 11 12 12 12 11 11 10 8 7 6 6 6 5 5 5 5 5 5 6 6 6 6 7 7 6 5 4 4 4 5 6 6 6 6 6 5 5 6 5 5 5 5 5 5 6 7 8 8 8 8 9 10 9 9 8
14 14 13 12 11 10 9 8 8 8 7 4 3 3 3 3 3 2 2 3 4 4 5 4 3 3 3 6 8 9 10 12 13 13 13 13 12 11 10 9 9 8 8 7 7 7 7 7 7 7 7 7 8 8 7 6 5 4 4 5 6 6 6 6 6 6 5 6 6 5 4 4 4 4 5 7 8 8 8 9 10 10 9 9 8
14 13 13 12 11 10 10 9 9 8 6 5 5 6 5 5 4 3 2 3 4 4 4 2 2 2 1 2 4 6 9 12 13 13 13 13 13 12 11 11 11 11 11 10 10 10 9 9 9 9 9 9 10 10 9 9 7 6 5 6 6 6 7 7 7 7 6 6 6 5 3 4 4 3 4 6 7 8 8 9 10 10 10 9 8
14 13 12 12 11 11 11 11 9 8 6 6 7 8 7 6 5 3 3 3 4 4 2 2 2 2 2 1 2 5 7 9 10 9 9 11 12 13 13 13 14 13 13 13 13 12 12 11 11 11 12 11 10 10 10 10 9 7 6 6 6 6 7 7 7 7 6 6 7 6 3 3 4 3 4 6 7 7 7 9 10 10 10 9 9
15 13 12 12 12 11 11 10 8 8 8 8 9 8 7 7 5 3 3 3 4 4 1 4 3 3 4 2 0 2 4 5 6 7 8 10 12 13 14 14 14 12 12 12 12 11 11 12 13 13 13 12 10 9 8 8 8 7 6 6 6 6 7 7 8 8 7 7 8 6 4 3 4 3 3 5 6 7 7 9 10 10 10 9 8
15 13 12 12 11 11 10 9 9 10 10 10 10 8 7 7 6 4 3 3 3 3 1 4 3 6 5 3 0 1 1 3 5 6 7 9 10 11 11 11 11 9 8 8 8 8 8 9 11 11 10 9 8 8 8 7 6 5 5 5 5 5 5 6 7 8 7 7 7 6 4 3 4 3 3 4 6 7 8 9 10 10 10 9 8
16 14 13 12 11 10 10 10 10 10 12 12 11 8 7 7 6 4 3 3 2 1 2 3 4 6 4 2 1 1 1 2 3 5 6 6 6 6 7 8 8 7 6 6 6 6 6 6 7 8 8 8 8 9 7 5 4 4 3 3 3 4 4 5 6 6 7 7 7 6 4 3 4 4 3 3 5 6 7 8 9 9 9 9 8
16 14 13 12 11 11 11 11 11 11 12 12 10 9 7 7 5 4 3 3 2 1 1 2 3 5 3 2 1 1 1 1 2 3 4 4 5 5 6 6 6 6 5 5 5 6 6 5 5 6 7 8 8 7 6 5 5 4 3 3 3 5 5 5 5 5 6 7 7 6 4 4 4 4 3 3 4 5 6 7 8 8 9 8 8
16 15 13 12 11 12 12 12 12 12 12 11 10 9 7 6 5 4 4 3 2 2 2 3 2 3 2 2 1 1 2 2 1 1 2 3 4 5 6 6 5 5 5 4 5 6 7 6 6 6 8 8 8 7 6 7 7 6 4 4 4 5 5 5 4 5 6 7 7 6 4 4 4 5 4 3 3 4 4 6 7 7 8 8 8
17 16 14 13 12 12 12 13 13 12 12 11 10 9 7 6 6 5 4 3 2 4 5 5 4 4 3 2 2 2 3 2 2 0 2 2 3 5 6 6 6 5 4 4 5 6 6 6 6 7 7 8 8 7 7 8 8 7 5 4 5 5 5 4 4 4 5 6 7 6 5 4 5 5 5 3 3 3 4 5 5 6 7 7 7
17 16 15 14 13 12 13 14 14 12 12 12 11 9 8 7 6 5 4 3 3 4 6 5 4 5 5 4 3 3 3 2 2 1 1 1 3 4 5 7 7 6 5 6 7 6 7 7 6 6 6 7 7 6 6 7 7 6 4 4 4 4 4 3 4 4 5 6 7 6 6 5 5 6 6 4 3 2 3 4 4 5 6 6 7
17 15 15 14 13 12 13 15 14 13 13 12 11 9 8 8 7 5 4 3 3 4 5 4 3 5 5 5 4 4 3 3 2 2 2 1 1 2 5 8 8 6 6 6 7 7 7 6 5 5 6 8 7 5 6 7 7 6 4 4 3 3 3 3 4 4 5 6 7 7 7 6 6 7 7 6 4 2 2 3 3 4 4 6 7
17 15 14 14 13 13 13 15 15 13 14 13 11 9 9 8 7 6 5 4 3 3 3 3 3 4 4 3 4 3 3 2 2 1 2 1 1 2 4 5 5 8 8 7 8 7 6 5 4 4 6 8 7 6 6 8 9 8 6 4 3 2 3 3 3 4 4 5 7 8 7 7 7 7 8 7 5 3 3 3 3 3 4 5 6
18 15 14 13 13 12 13 14 14 14 14 14 12 10 9 8 7 6 5 4 3 3 3 3 4 4 3 3 2 2 2 1 1 1 2 1 0 2 4 4 6 8 8 9 8 7 5 4 3 4 6 7 7 7 8 8 9 10 8 6 4 3 3 3 3 4 4 5 7 8 8 8 7 8 8 7 5 4 4 4 4 3 3 4 5
19 17 15 14 13 12 13 14 15 15 15 14 12 10 9 8 7 6 5 4 4 3 3 4 4 3 3 3 2 2 2 1 1 1 1 1 0 2 4 4 4 6 9 10 8 6 5 4 3 4 5 7 7 8 9 9 9 9 8 7 5 3 3 3 4 4 5 4 6 8 9 8 8 8 9 8 7 5 4 4 4 4 3 4 4
22 20 17 15 14 12 12 14 15 15 15 15 13 11 9 8 6 6 6 6 5 5 4 4 4 3 3 3 3 3 2 1 1 0 0 0 1 2 3 3 3 5 8 8 8 8 5 4 4 4 5 7 7 7 9 10 9 9 8 6 5 4 4 5 5 4 5 4 5 8 10 9 8 9 10 9 8 7 5 5 5 4 3 3 3
24 22 19 17 15 13 12 13 14 15 15 15 13 12 10 8 7 6 7 7 6 6 5 5 5 4 4 4 4 3 2 1 0 1 1 2 2 2 3 3 3 4 5 6 8 6 4 4 5 4 5 6 6 7 10 11 10 9 9 7 5 5 7 7 5 5 6 6 5 7 9 9 8 8 9 10 10 8 7 6 5 4 3 2 3
24 22 20 18 16 14 14 14 14 15 15 16 14 12 11 9 7 7 7 7 7 7 6 6 6 5 5 4 4 3 3 3 3 3 3 4 4 4 3 1 2 3 3 5 6 5 4 5 5 5 6 6 5 8 11 12 11 10 9 7 6 7 9 9 6 6 8 7 5 6 9 9 9 9 10 11 11 9 7 6 5 4 2 1 2
22 21 20 18 16 15 15 15 15 15 16 16 15 13 12 10 8 8 8 8 8 7 7 7 7 6 6 6 6 5 4 5 5 5 5 5 6 6 5 2 1 1 2 2 3 3 4 4 3 4 6 6 7 9 11 11 11 10 9 7 7 8 8 8 7 8 9 8 7 8 9 9 10 10 11 11 10 9 7 6 6 4 2 1 0
21 21 19 17 16 15 15 16 16 16 16 16 15 14 12 10 10 10 10 9 9 7 7 7 7 7 7 7 8 7 6 6 5 5 5 6 7 8 8 6 3 2 0 1 1 1 3 5 3 3 6 8 9 10 11 11 10 10 9 7 8 9 9 9 8 8 9 10 10 10 11 10 10 13 13 11 9 9 8 7 6 5 3 2 1
21 20 18 17 16 16 16 16 17 17 17 16 14 14 13 11 11 11 11 10 10 8 8 8 8 8 8 8 9 9 7 6 5 5 5 7 8 9 9 8 7 5 3 1 1 2 3 4 4 4 7 9 9 10 11 11 10 10 9 8 9 9 8 9 9 9 9 10 10 12 12 10 10 12 13 11 10 10 10 9 8 6 5 5 3
21 20 18 17 18 17 17 17 18 18 18 17 15 15 14 12 11 11 12 12 11 10 9 8 8 8 8 8 9 9 9 9 7 6 7 8 8 9 9 9 9 8 7 4 1 3 4 4 5 8 10 9 9 10 10 10 10 9 8 7 8 9 9 9 9 10 9 9 9 10 12 11 10 11 14 14 13 13 12 11 9 7 7 6 4
21 20 19 18 19 18 18 18 19 20 20 18 17 16 14 13 12 12 13 13 12 11 10 9 9 9 9 10 10 10 10 10 9 8 8 9 9 9 9 10 9 9 9 7 5 6 10 9 9 10 9 8 9 9 9 9 9 9 8 7 7 8 9 9 9 9 8 8 8 8 8 9 10 11 12 13 13 15 16 12 10 10 10 7 3
22 21 20 19 19 19 18 18 19 21 22 21 19 18 16 15 13 13 14 14 14 13 12 11 11 11 11 11 11 11 10 11 10 10 9 9 9 9 8 10 10 10 10 10 8 8 11 11 9 8 8 8 8 8 8 8 8 8 7 7 7 7 8 8 9 9 8 7 7 6 5 5 8 10 10 10 10 12 15 14 13 12 7 2 2
23 22 21 20 19 19 18 18 19 20 22 22 21 19 18 17 15 15 15 15 15 15 14 13 13 13 13 13 13 12 11 12 11 11 10 10 9 8 7 8 10 11 11 11 10 9 10 12 10 8 8 7 6 6 7 7 7 7 6 5 5 7 8 8 8 9 8 8 7 6 6 5 7 9 8 6 5 10 15 15 15 11 4 1 4
23 23 21 20 19 19 19 19 19 19 20 21 21 20 19 18 17 16 16 17 16 16 15 15 15 14 14 14 14 13 12 13 12 11 11 11 10 9 9 10 12 12 12 12 12 11 12 12 9 7 6 6 5 5 6 6 5 5 5 4 5 7 7 8 9 10 10 9 8 8 7 6 6 6 6 4 7 13 15 14 11 5 3 6 9
23 22 21 21 20 20 20 19 19 18 19 20 20 20 19 19 18 18 18 18 18 17 17 17 17 16 16 15 15 14 13 13 13 12 12 12 12 12 11 12 12 12 11 11 12 13 13 11 9 8 6 5 6 5 5 5 4 4 4 4 4 5 6 7 8 9 9 10 9 7 7 7 6 2 1 5 9 12 11 9 5 3 6 9 10
22 22 21 22 22 22 22 22 21 20 19 19 20 20 20 20 20 20 19 19 19 19 19 18 18 18 18 17 16 14 14 14 14 13 13 13 13 13 13 13 13 13 12 12 12 12 13 12 11 10 8 7 6 6 5 4 3 3 2 3 3 5 6 5 6 5 5 7 7 6 6 5 4 4 7 8 8 8 5 4 3 4 6 7 8
22 22 23 23 23 23 23 23 22 22 21 20 20 20 20 21 21 21 21 21 21 21 20 20 19 18 18 18 17 16 16 17 16 14 14 14 14 15 15 14 14 14 13 13 12 12 13 13 13 11 10 9 8 7 6 5 4 4 2 1 2 3 3 3 2 3 2 3 5 6 6 5 5 5 6 5 5 5 5 4 3 3 3 4 6
24 24 24 24 24 24 23 22 22 23 23 22 22 21 21 21 22 22 23 23 23 22 22 21 20 19 19 19 18 18 18 18 17 16 15 15 15 16 16 16 16 15 15 15 14 13 12 12 12 12 11 10 9 9 8 6 6 5 3 2 3 2 1 1 1 2 2 3 5 7 7 6 5 3 2 1 1 2 3 3 3 5 6 7 9
24 25 25 24 24 23 23 23 22 22 23 24 24 23 23 22 23 23 23 24 24 23 23 23 22 21 20 20 20 19 19 19 19 18 17 16 16 16 17 17 15 14 14 14 13 12 12 12 13 12 11 10 10 10 9 8 8 7 6 5 5 5 5 4 4 4 4 3 5 7 6 4 3 2 1 2 3 4 5 7 8 10 10 11 12
24 25 24 23 23 23 24 24 24 24 25 26 26 25 25 24 24 24 24 25 25 25 24 24 24 23 22 22 22 21 21 20 21 21 20 19 18 18 18 15 12 13 14 13 14 15 15 13 13 12 10 9 10 11 11 11 10 8 7 6 5 7 8 7 6 5 5 5 6 7 7 4 4 6 6 8 9 10 12 13 14 13 13 13 12
24 24 23 23 23 24 24 25 25 25 26 26 27 26 26 25 25 25 26 26 26 26 25 25 25 25 24 23 23 22 22 22 22 22 22 22 21 20 19 17 17 18 17 16 17 19 16 14 14 12 10 10 13 13 13 12 11 9 8 7 7 9 10 8 7 6 7 7 7 9 10 8 9 13 14 15 16 18 18 17 15 14 14 12 11
25 25 24 24 24 25 25 25 26 26 27 28 27 27 27 27 27 27 27 27 27 26 26 25 25 25 25 25 24 23 23 24 23 23 23 23 22 21 21 21 20 19 17 16 19 20 18 16 16 14 13 15 16 14 13 12 11 11 10 8 8 11 12 9 7 7 9 10 9 12 13 11 13 17 18 19 20 20 18 16 15 14 13 12 11
26 26 26 26 26 26 26 26 27 27 28 29 29 29 29 28 28 28 28 28 28 27 26 26 26 26 26 26 26 25 24 24 24 24 22 23 23 22 23 23 20 18 17 18 19 20 19 18 17 17 18 19 17 14 12 11 11 11 10 9 9 10 12 11 9 8 12 14 12 14 13 10 13 19 20 20 19 17 15 15 15 14 13 13 13
26 27 27 28 28 28 27 27 28 29 29 29 29 30 30 30 29 29 29 29 29 29 27 26 26 26 26 26 26 25 24 24 24 25 23 22 21 20 20 21 19 18 18 18 18 19 19 18 19 19 19 18 17 15 12 10 10 11 11 10 9 9 11 12 10 10 14 17 16 16 14 10 14 19 20 18 15 14 15 15 15 15 14 15 15
25 26 27 28 29 29 29 29 29 30 30 30 30 31 31 31 31 30 31 31 31 30 29 28 27 27 26 26 25 25 24 24 25 24 22 21 20 19 19 20 19 18 18 18 19 19 20 20 19 19 18 18 17 14 10 9 9 10 10 9 8 8 10 9 7 9 15 17 17 15 14 11 15 19 18 17 16 15 16 17 17 16 16 15 15
24 25 26 27 29 30 31 31 31 31 32 32 32 32 32 32 31 31 32 32 32 32 31 30 29 28 27 26 25 24 24 24 24 22 19 17 16 15 16 19 20 19 19 19 20 20 21 20 19 18 17 16 15 12 10 9 8 8 8 8 7 9 9 7 8 12 16 17 15 12 12 11 16 19 18 16 16 17 18 18 17 16 15 15 14
24 25 25 26 28 29 30 31 31 32 34 34 33 33 32 32 32 33 33 33 33 33 34 33 32 30 29 27 25 25 25 25 26 24 21 19 17 16 16 19 21 22 21 21 20 20 19 18 17 16 14 13 12 10 9 8 7 8 9 8 8 10 11 13 14 14 15 14 12 12 15 16 17 18 18 15 16 18 19 19 17 16 15 14 13
26 25 26 26 26 27 29 29 30 32 33 33 33 33 33 32 32 33 34 34 34 34 34 34 34 32 31 29 27 26 26 27 27 26 23 21 20 20 20 19 20 22 23 22 20 19 17 17 16 16 14 13 11 9 8 7 7 9 10 11 13 15 16 15 12 12 13 12 10 13 19 21 19 19 19 16 17 19 19 19 18 16 14 13 12
28 28 28 27 25 25 27 28 29 30 32 32 32 32 33 34 34 34 35 34 34 34 33 33 33 33 31 29 28 28 28 27 27 25 23 20 20 19 19 19 20 23 25 25 23 20 19 18 17 16 15 13 11 10 10 9 9 11 12 13 15 17 17 14 14 13 11 11 14 17 21 22 20 20 21 18 16 17 18 17 16 14 12 10 10
28 29 29 28 28 27 28 29 29 30 31 32 32 32 33 33 34 35 35 34 33 33 33 33 33 32 31 29 28 28 28 27 26 23 20 19 19 19 19 20 22 24 26 28 25 22 20 19 17 16 14 13 12 12 12 12 12 12 12 12 14 17 17 16 19 16 9 10 18 20 20 23 23 22 22 17 11 11 15 17 15 13 11 8 8
Wind_Direction
175 171 167 162 157 156 153 149 147 142 137 131 125 121 120 121 123 127 133 143 155 177 221 254 255 257 253 253 257 265 272 269 268 262 255 244 235 229 224 215 208 207 207 222 239 237 218 190 186 187 188 208 224 250 263 293 310 318 329 340 350 351 352 353 352 353 355 358 1 2 8 16 3 0 357 351 354 358 358 357 353 352 352 350 350
176 172 168 163 158 156 153 152 150 145 139 134 130 127 126 125 125 124 125 128 114 63 29 28 293 253 241 252 252 234 231 205 192 213 226 226 219 219 215 210 210 211 211 224 239 230 211 193 192 192 187 193 193 228 260 276 294 307 318 328 335 337 338 338 340 345 352 358 359 3 9 7 353 355 351 348 355 359 359 358 355 354 352 355 356
174 171 167 164 161 158 156 156 154 149 144 140 136 131 128 122 114 108 101 96 77 51 36 37 248 238 231 284 249 205 178 123 107 172 199 203 204 209 210 208 211 217 218 226 236 233 224 204 201 206 198 206 213 239 266 278 286 296 306 316 322 324 326 328 331 340 347 352 355 5 6 355 353 351 344 347 355 357 1 359 356 357 353 2 3
174 172 167 166 165 162 162 160 158 155 152 149 142 134 125 112 99 95 91 88 75 56 45 52 208 221 271 304 263 237 222 98 48 341 220 207 203 205 208 204 202 210 220 228 231 225 221 210 205 217 226 248 272 282 286 291 290 292 296 301 306 308 312 315 321 332 336 340 349 353 339 340 351 345 342 350 355 356 1 358 355 359 358 5 2
176 172 167 169 170 169 168 165 163 162 162 159 151 140 126 107 92 94 94 87 71 56 47 27 305 245 310 298 265 264 319 322 335 341 278 231 220 212 210 209 199 197 204 215 226 228 227 224 225 230 240 257 270 283 285 288 291 294 295 295 298 297 297 300 305 314 318 325 336 335 325 338 350 342 346 353 355 357 1 357 355 358 0 3 355
177 172 169 173 176 175 173 169 169 169 170 170 162 153 135 105 97 100 97 83 59 46 38 12 333 307 300 291 273 276 300 296 295 299 284 254 239 230 222 221 216 207 206 209 219 231 238 238 241 245 250 259 266 275 281 286 288 290 294 298 302 302 301 300 297 299 303 311 323 327 324 336 345 343 348 354 356 359 359 358 357 357 359 359 355
180 177 175 178 179 178 174 170 172 173 177 180 168 156 133 104 98 94 84 68 41 33 28 2 316 292 284 279 277 279 277 272 271 271 273 266 249 243 237 233 231 229 228 226 227 234 243 249 252 256 261 266 271 277 278 282 286 289 293 296 300 304 305 303 298 297 294 300 317 327 323 328 342 345 350 355 358 359 359 358 357 358 356 353 355
184 183 181 180 179 176 171 170 173 177 185 178 149 144 130 104 91 74 62 40 24 26 13 335 294 280 274 271 271 275 273 266 263 264 265 264 259 249 243 241 240 241 242 242 240 240 246 257 264 269 273 277 279 283 284 284 285 289 293 296 299 300 302 301 297 298 294 296 315 323 317 326 342 346 350 354 357 359 359 359 358 357 354 352 357
186 187 185 180 176 174 173 176 181 184 182 159 134 139 132 104 81 41 11 359 5 7 344 307 279 271 266 263 264 269 272 268 264 265 264 263 262 255 248 246 244 247 250 248 248 248 248 253 265 276 283 287 289 291 292 291 288 288 292 295 298 298 299 299 293 292 285 286 307 312 309 322 339 345 349 352 355 357 360 1 358 355 353 355 2
189 189 187 182 178 179 185 191 191 185 176 159 140 154 172 192 216 266 303 332 349 341 325 304 278 267 257 252 254 261 269 271 267 264 265 266 267 264 261 258 255 258 260 260 259 258 260 261 267 278 288 296 300 299 296 289 281 279 283 288 290 291 292 290 284 280 267 268 287 296 301 314 328 344 350 350 354 355 360 3 358 357 357 359 3
190 190 187 185 186 189 197 200 195 184 177 179 188 215 239 232 226 251 278 315 336 326 318 309 291 293 268 237 240 251 260 266 267 267 268 268 267 268 270 269 268 267 266 268 270 270 273 275 277 283 291 296 296 296 292 279 265 260 267 277 284 282 280 279 273 268 253 250 265 279 293 303 311 340 352 351 352 353 0 3 360 2 1 2 5
186 187 187 187 191 196 201 199 195 189 188 203 223 243 251 242 244 253 264 313 330 323 321 296 287 354 354 213 224 245 257 264 268 270 270 266 264 267 271 275 277 277 276 275 275 277 281 284 288 291 295 298 297 295 289 280 270 264 269 277 282 281 276 272 267 262 251 240 251 269 283 292 299 330 355 352 351 353 1 3 2 4 2 4 8
183 185 188 189 191 194 197 196 198 201 205 222 239 251 250 247 252 253 279 326 338 341 355 216 216 108 93 165 227 244 255 263 266 265 264 263 264 265 270 277 281 282 281 280 280 281 284 287 292 296 299 301 301 299 292 280 270 268 280 284 281 279 273 269 264 259 252 237 243 263 279 288 295 320 357 353 348 352 3 4 2 3 1 6 11
187 188 192 191 191 191 194 197 204 214 220 232 243 250 248 247 249 245 280 318 330 343 61 166 192 167 137 107 26 254 247 250 254 252 257 264 267 268 271 275 280 283 284 285 288 288 288 290 293 298 300 298 298 302 300 287 273 268 279 286 283 281 274 271 266 258 251 240 243 262 284 291 293 309 349 351 347 354 4 5 2 3 3 6 14
193 194 194 192 194 194 199 206 214 222 227 235 243 250 246 242 242 237 269 303 316 341 126 160 182 176 151 110 79 299 273 267 262 255 260 267 271 273 272 274 280 287 293 297 302 301 298 298 299 301 301 300 301 308 312 304 287 275 277 283 286 291 287 283 277 262 249 241 246 263 283 289 290 296 330 348 348 355 4 5 2 3 3 5 16
197 197 196 195 199 201 207 214 220 226 229 235 242 248 240 233 233 227 251 285 300 354 152 182 193 178 146 109 156 89 18 296 270 252 254 258 263 271 278 284 286 289 301 307 310 316 319 315 310 311 311 309 312 319 325 326 314 294 287 293 297 303 304 303 300 277 253 241 244 258 276 286 281 281 309 341 348 358 5 4 3 3 2 4 15
200 201 200 201 204 207 211 215 219 225 228 233 238 238 226 222 225 216 231 270 281 271 156 183 209 192 163 132 136 33 251 246 263 243 237 237 245 267 287 296 292 287 297 308 317 329 336 335 330 328 327 326 328 334 347 355 348 323 302 307 305 309 308 302 306 293 264 247 244 251 268 280 273 270 288 323 342 357 3 3 4 3 1 4 8
202 205 205 206 209 212 213 212 216 221 224 228 228 223 213 210 213 208 221 255 263 232 163 142 162 179 179 163 156 213 197 181 169 267 278 257 252 275 292 301 302 294 298 314 330 338 342 345 343 337 333 339 349 352 355 352 346 332 312 310 312 318 316 293 294 302 278 258 249 249 260 273 265 260 271 298 328 348 357 1 5 2 2 4 4
204 208 208 208 211 215 214 211 214 217 220 221 213 205 201 199 198 198 213 232 235 211 172 148 138 135 139 153 154 153 162 159 158 228 319 286 280 300 300 301 304 302 305 322 333 338 343 343 336 334 334 343 353 351 347 344 342 336 318 312 317 327 330 300 288 302 288 267 254 248 254 266 260 251 256 274 304 333 345 353 1 2 1 2 3
207 211 210 208 213 218 214 210 212 214 217 213 201 195 193 192 191 191 202 209 211 199 176 161 145 130 127 135 143 142 146 158 168 169 144 248 306 320 320 321 314 301 305 324 330 328 332 334 332 335 341 347 353 354 353 352 352 352 337 323 325 333 344 325 305 305 290 272 256 244 248 258 257 248 246 254 271 302 321 340 355 359 358 360 2
210 213 213 211 216 221 216 211 210 213 215 209 198 194 191 188 190 193 200 204 203 195 183 173 158 147 137 132 134 126 116 114 125 127 120 150 291 302 320 329 326 315 319 327 332 328 326 334 345 351 354 357 2 4 4 1 359 1 357 345 345 347 356 350 325 309 293 277 258 243 245 253 255 249 244 246 253 270 293 317 339 348 353 358 1
211 212 212 211 215 218 216 212 212 214 215 210 203 198 192 188 189 195 204 210 211 201 190 177 165 165 160 152 149 138 125 119 133 132 108 111 243 281 309 323 317 321 336 339 336 333 328 341 3 4 360 2 5 5 0 357 352 351 350 344 338 340 354 1 344 315 298 281 260 248 248 251 255 253 247 245 249 261 282 295 315 330 344 355 1
212 211 209 207 209 212 213 213 215 216 216 213 208 203 196 193 192 197 205 213 218 215 200 183 173 174 168 171 176 161 153 148 155 148 120 123 175 288 304 311 298 307 338 348 343 340 336 350 10 1 359 1 3 2 357 352 347 345 344 338 324 311 332 350 352 333 308 283 261 253 253 254 259 260 249 243 246 259 275 287 296 309 329 350 359
214 212 207 206 208 209 211 214 215 216 216 214 211 206 200 199 201 207 212 221 228 225 216 203 196 190 169 159 151 133 123 109 131 136 113 114 162 273 295 318 306 306 336 348 352 352 345 353 1 351 358 2 2 4 1 355 349 344 341 338 325 304 304 310 322 335 331 299 263 255 258 257 259 263 255 241 240 246 255 270 281 292 315 342 358
214 213 209 208 212 213 213 214 213 214 216 216 212 208 204 202 208 218 226 234 242 238 225 215 210 207 187 166 152 139 118 90 95 109 27 329 284 277 290 309 297 307 336 348 352 353 356 9 5 356 0 360 358 4 4 358 355 350 343 339 326 303 291 290 297 311 319 302 265 253 259 257 253 260 259 244 236 237 242 251 263 277 298 335 358
213 212 210 212 216 217 217 217 215 213 216 217 214 210 208 208 214 226 234 241 247 244 236 230 228 221 204 189 181 176 173 158 324 316 323 319 304 283 288 305 293 304 337 346 342 347 3 7 4 6 3 356 355 2 1 358 357 355 350 344 326 291 272 276 283 280 283 284 268 253 257 258 251 251 256 251 241 235 237 240 244 259 278 332 353
213 212 213 216 219 219 220 222 219 216 217 218 217 215 213 213 220 230 237 245 252 250 248 247 246 241 228 216 212 213 224 244 269 292 304 313 313 294 280 301 315 315 335 340 341 351 2 358 3 12 7 2 360 1 1 359 359 360 1 353 324 291 275 281 291 286 279 279 279 266 260 260 254 245 246 251 245 232 231 237 233 238 261 326 355
213 213 215 219 222 223 223 224 221 220 220 219 219 219 218 219 227 235 240 246 253 253 253 256 256 252 244 238 236 238 249 263 269 277 288 299 306 299 280 249 215 323 330 330 346 6 11 1 360 5 8 7 359 359 1 358 357 1 5 354 323 304 299 306 309 298 291 290 292 283 273 266 254 243 235 236 239 226 212 217 220 218 223 212 80
213 213 216 220 222 223 224 224 223 222 222 221 221 221 221 224 232 240 244 247 252 254 258 261 260 257 252 248 245 245 253 268 272 277 292 297 297 296 287 267 232 207 241 320 322 334 342 341 338 345 357 356 352 355 358 358 358 358 359 348 327 317 317 322 317 306 304 303 300 292 283 270 249 241 232 222 226 223 203 198 203 193 180 168 123
211 213 217 219 218 220 224 225 224 223 222 223 223 222 223 227 236 242 244 246 249 253 258 263 263 261 259 253 249 248 252 263 273 283 301 307 299 293 288 277 257 234 214 208 304 288 305 338 342 331 337 342 346 353 356 360 0 356 353 344 330 324 322 322 319 315 312 306 301 294 288 278 254 246 243 231 225 221 208 198 190 174 162 155 128
212 215 218 218 217 220 223 224 224 222 222 223 224 225 226 230 238 242 242 244 247 250 257 265 268 264 260 257 254 251 253 261 271 283 300 310 303 292 286 278 268 257 238 210 203 276 279 311 321 317 323 329 339 351 357 360 1 357 355 346 332 325 321 319 321 322 320 314 306 297 292 284 264 257 257 246 230 217 209 198 183 168 156 150 136
217 217 219 220 219 221 221 220 220 221 223 224 225 226 228 232 239 243 243 244 247 252 258 265 269 265 261 261 259 256 256 261 269 277 290 304 303 289 281 278 273 267 250 220 207 258 277 291 301 305 314 321 331 346 353 356 1 360 356 350 338 330 325 325 329 328 325 322 314 304 297 283 267 270 271 258 239 216 201 185 168 157 145 145 177
221 220 223 224 223 223 221 219 219 220 223 225 226 227 229 233 238 243 245 246 250 255 258 262 264 262 262 263 261 259 259 263 268 272 280 298 303 287 275 276 275 272 259 236 226 254 279 291 295 297 304 312 322 337 346 353 0 358 356 357 350 343 340 339 338 336 334 330 325 325 321 294 281 287 291 285 261 209 179 163 159 160 153 167 219
222 223 227 229 227 224 222 221 220 222 223 224 225 227 230 233 238 242 244 246 250 253 255 257 258 257 260 262 262 261 263 266 267 268 273 287 297 286 275 278 282 282 272 254 240 246 270 284 290 293 296 301 311 324 336 347 355 353 358 10 359 349 349 349 348 350 355 352 349 358 1 338 309 298 290 284 235 174 161 160 166 170 181 184 139
225 227 230 229 226 224 223 224 224 225 225 224 225 228 230 234 238 242 243 244 247 249 251 254 254 253 256 259 260 261 263 265 265 265 270 275 280 281 279 281 284 284 278 266 252 247 258 275 289 296 295 295 301 313 325 337 346 343 346 1 355 348 355 4 1 357 2 6 7 10 14 13 354 316 287 245 183 170 166 171 179 187 173 151 139
229 230 230 228 227 228 229 230 231 230 229 228 229 232 234 237 241 244 244 243 244 246 250 253 254 253 253 256 258 259 261 265 265 265 267 267 270 275 278 279 279 278 276 272 264 255 254 265 280 286 287 287 289 298 308 319 330 330 335 347 348 354 8 13 9 5 10 16 15 11 15 19 22 14 211 180 174 177 176 177 188 173 155 155 147
232 232 231 230 230 232 233 236 238 237 236 234 234 236 238 241 245 247 247 245 245 247 251 255 256 255 254 254 256 257 259 264 266 268 268 266 267 271 274 275 272 269 270 270 270 263 254 257 268 275 278 278 278 284 286 290 298 300 316 338 349 4 13 16 22 28 25 26 30 35 38 41 66 119 137 143 152 161 164 159 155 157 172 179 166
233 233 233 233 234 235 236 239 241 241 241 240 239 240 241 245 247 248 247 246 246 249 252 256 258 258 256 255 256 257 258 261 265 269 270 267 267 268 270 272 272 270 268 267 270 268 258 258 264 267 269 272 271 270 268 269 271 265 264 357 6 357 350 348 41 71 66 53 66 76 78 85 103 118 123 125 130 126 121 129 146 159 174 169 146
235 235 236 238 238 239 240 243 245 245 245 245 244 243 243 246 248 247 246 246 247 250 254 258 261 260 259 258 258 258 258 260 264 269 271 269 267 266 268 271 270 269 269 266 263 261 258 258 258 259 261 264 263 262 264 263 260 256 238 190 167 177 228 257 201 156 139 111 105 105 99 98 107 116 117 118 98 85 91 101 108 110 113 117 119
240 240 241 242 242 242 244 248 251 252 251 249 247 245 244 246 247 246 246 246 248 252 256 260 262 263 262 261 262 262 263 264 266 268 272 272 268 265 267 269 270 273 279 277 267 261 260 255 254 258 258 255 252 251 252 248 246 249 243 219 189 179 181 179 178 179 173 160 139 121 110 107 118 129 136 111 87 81 90 100 108 112 114 117 122
245 246 248 248 247 247 248 251 254 255 254 252 251 249 247 247 247 248 248 249 250 253 256 261 264 265 265 266 267 267 268 270 270 270 272 272 270 270 267 264 268 275 277 271 263 263 261 252 250 255 253 248 244 239 237 239 243 248 242 223 196 184 182 169 161 176 183 172 154 130 117 123 130 120 116 113 109 110 115 115 115 117 119 120 123
246 248 251 251 251 252 252 253 255 255 254 254 254 253 252 252 252 252 251 251 252 253 256 259 263 266 269 270 272 272 273 275 275 274 273 272 273 273 268 263 266 269 264 257 255 257 255 248 248 250 245 244 246 244 245 246 246 244 231 212 187 175 169 151 143 167 181 176 158 132 118 122 127 119 112 112 114 116 116 115 116 120 120 117 115
246 248 250 252 253 255 255 256 256 256 255 255 256 256 256 256 255 254 254 254 254 254 255 258 262 267 270 272 275 276 275 276 276 276 274 272 272 272 269 268 270 268 264 261 257 253 249 247 250 253 250 250 254 257 254 249 243 235 226 211 189 178 175 165 154 167 181 184 165 135 121 123 126 120 115 116 118 117 114 115 118 117 114 111 109
247 249 250 253 255 257 257 258 258 259 259 258 258 258 258 258 257 255 254 255 255 255 257 259 262 267 270 273 276 277 275 275 276 277 275 271 271 270 267 266 267 265 265 262 255 251 249 246 249 255 254 252 256 259 255 250 241 230 222 212 201 201 202 199 192 181 182 185 168 134 121 128 130 123 120 123 123 120 118 119 119 116 114 114 111
247 249 250 252 255 257 259 259 260 262 263 262 261 260 259 259 258 255 253 254 255 256 258 260 263 266 269 272 274 275 274 272 273 275 275 272 270 269 266 263 263 266 269 263 256 256 256 252 253 260 260 256 258 262 260 254 239 221 215 215 216 219 221 222 219 191 176 179 165 131 116 130 138 128 124 128 131 130 126 124 123 121 119 115 112
246 248 249 250 253 255 258 260 261 263 263 263 263 262 262 262 259 255 252 252 253 254 257 259 261 263 265 267 269 272 273 270 269 271 273 274 272 267 263 260 259 262 264 259 254 253 253 252 256 265 268 262 260 263 260 250 240 227 223 225 220 215 220 230 229 185 171 176 169 135 113 132 145 134 129 134 138 136 131 129 127 124 119 116 114
246 248 249 250 251 253 255 257 258 260 262 263 262 262 263 263 260 256 253 251 251 253 255 257 258 259 260 261 263 268 269 268 265 264 267 277 279 269 263 266 268 263 256 251 249 247 249 254 259 264 264 257 254 257 253 245 239 229 227 224 212 207 201 178 153 154 159 169 173 148 120 136 149 139 134 139 140 137 136 135 132 128 125 122 120
245 248 249 250 251 252 253 254 254 255 259 261 261 261 263 263 260 255 253 251 250 251 253 255 256 256 256 256 258 262 263 262 261 260 261 268 271 261 255 261 265 260 251 247 246 246 249 253 252 250 248 247 249 250 244 233 220 216 214 202 194 191 169 141 135 144 153 162 176 161 138 142 152 145 138 141 142 140 141 141 137 134 132 129 125
244 245 247 250 252 253 253 253 252 253 256 258 260 261 262 261 257 253 250 249 249 249 252 254 255 255 255 255 255 257 258 259 262 262 261 262 263 260 253 249 250 252 250 248 244 243 244 243 239 239 243 247 246 240 232 224 221 223 210 189 184 180 162 144 137 145 151 156 174 169 148 143 150 145 135 137 143 144 145 146 143 139 136 133 128
245 246 247 251 254 256 255 254 253 253 254 257 259 259 260 259 255 251 248 246 245 246 249 251 253 254 255 255 254 254 256 260 262 263 263 262 262 261 258 251 246 248 251 248 243 241 240 238 239 242 244 245 240 233 229 225 225 228 220 205 195 182 167 152 142 138 139 150 166 166 147 140 148 147 135 132 138 144 150 152 150 147 143 139 132
246 247 248 250 253 256 255 255 254 253 254 257 257 256 257 257 254 251 247 243 240 242 245 247 250 251 253 252 251 253 257 261 264 265 268 266 260 258 258 250 244 248 252 248 243 242 241 238 239 241 240 240 239 236 233 227 219 219 223 222 208 187 172 160 150 142 137 159 170 169 153 147 153 152 143 136 133 147 159 161 160 161 159 158 148